sat.trackr.live / text

‹ back to catalog

HJS-9D

NORAD 68834 · 2026-091D

PAYLOAD ACTIVE UNKNOWN

§ Identity

Operator
Country
PRC
Launch date
2026-04-24
Launch site
XICLF
Launch vehicle
Mass (kg)
RCS (m²)

External: N2YO · Heavens-Above · Gunter

§ Orbital elements

Epoch: 2026-05-11T14:48:11.234880Z

Period
94.77 min
Inclination
55.0023°
Eccentricity
0.0009841
Mean motion
15.19483940 rev/d
Perigee alt
500.6 km
Apogee alt
514.2 km
Semi-major
6,885.5 km
B*
1.2871e-4
RAAN
181.4507°
Arg perigee
9.4049°
Mean anomaly
350.7153°
Rev number
264

§ Raw data

HJS-9D1 68834U 26091D   26131.61679670  .00002448  00000+0  12871-3 0  99912 68834  55.0023 181.4507 0009841   9.4049 350.7153 15.19483940  2640

JSON: /api/v1/satellites/68834 · /tle

For live sub-satellite position, see the globe view (requires WebGL).

§ Visibility from observer

Set your observer location to see the next 7 days of passes ≥ 10°. The values pass through the URL so the page stays shareable.

No JS? Fill the form by hand. The geolocation button needs JavaScript.